ACA459 CYHZ-CYYT

Flight info

Callsign ACA459
Flight time 1h 15m
Altitude 39000
Route DCT IGTAS DCT NOTOP DCT SILRO DCT TIGOR TIGOR5
Aircraft B777/M-V/N

Departure

Time 2026-05-05 19:30
Airport Halifax / Stanfield International Airport (CYHZ)

Arrival

Time 2026-05-05 20:46
Airport St. John's International Airport (CYYT)
Time Latitude Longitude Altitude Speed Heading
2026-05-05 19:24 44.88762 -63.51383 456 ft 0 kts 292°
2026-05-05 19:25 44.88756 -63.51363 456 ft 3 kts 292°
2026-05-05 19:25 44.88749 -63.51339 453 ft 3 kts 292°
2026-05-05 19:26 44.88742 -63.51315 453 ft 3 kts 292°
2026-05-05 19:26 44.88737 -63.51291 453 ft 3 kts 251°
2026-05-05 19:26 44.88746 -63.51274 455 ft 0 kts 201°
2026-05-05 19:27 44.88717 -63.51266 455 ft 9 kts 156°
2026-05-05 19:27 44.88701 -63.51154 456 ft 19 kts 81°
2026-05-05 19:27 44.88737 -63.50925 456 ft 26 kts 57°
2026-05-05 19:28 44.88877 -63.50773 454 ft 27 kts 37°
2026-05-05 19:28 44.89003 -63.50602 455 ft 24 kts 96°
2026-05-05 19:28 44.88968 -63.50505 455 ft 0 kts 126°
2026-05-05 19:29 44.88965 -63.50499 455 ft 5 kts 127°
2026-05-05 19:29 44.88906 -63.50434 454 ft 12 kts 180°
2026-05-05 19:29 44.88829 -63.50501 457 ft 21 kts 214°
2026-05-05 19:29 44.88530 -63.50795 458 ft 91 kts 214°
2026-05-05 19:30 44.87800 -63.51496 485 ft 158 kts 214°
2026-05-05 19:30 44.86824 -63.52517 848 ft 191 kts 214°
2026-05-05 19:30 44.85568 -63.53285 1421 ft 205 kts 193°
2026-05-05 19:30 44.84096 -63.53217 1858 ft 220 kts 174°
2026-05-05 19:31 44.82777 -63.52062 2415 ft 241 kts 140°
2026-05-05 19:31 44.82155 -63.49763 3046 ft 266 kts 99°
2026-05-05 19:31 44.82556 -63.47176 3629 ft 279 kts 67°
2026-05-05 19:31 44.83562 -63.44875 4221 ft 281 kts 57°
2026-05-05 19:32 44.84716 -63.42634 4780 ft 283 kts 54°
2026-05-05 19:32 44.85889 -63.40391 5329 ft 285 kts 54°
2026-05-05 19:32 44.87060 -63.38131 5882 ft 286 kts 52°
2026-05-05 19:32 44.88297 -63.35916 6411 ft 289 kts 51°
2026-05-05 19:33 44.89531 -63.33666 6945 ft 291 kts 52°
2026-05-05 19:33 44.90731 -63.31366 7533 ft 291 kts 53°
2026-05-05 19:33 44.91906 -63.29010 8065 ft 297 kts 54°
2026-05-05 19:33 44.93105 -63.26528 8472 ft 311 kts 55°
2026-05-05 19:34 44.94278 -63.24037 9606 ft 299 kts 55°
2026-05-05 19:34 44.95420 -63.21577 10465 ft 301 kts 55°
2026-05-05 19:34 44.96570 -63.19081 11183 ft 306 kts 55°
2026-05-05 19:35 44.98914 -63.13955 12705 ft 315 kts 55°
2026-05-05 19:35 45.00101 -63.11347 13534 ft 319 kts 55°
2026-05-05 19:35 45.01305 -63.08702 14312 ft 322 kts 55°
2026-05-05 19:35 45.02520 -63.06031 15096 ft 324 kts 54°
2026-05-05 19:36 45.03744 -63.03333 15852 ft 328 kts 54°
2026-05-05 19:36 45.04979 -63.00606 16624 ft 331 kts 54°
2026-05-05 19:36 45.06227 -62.97848 17394 ft 335 kts 54°
2026-05-05 19:36 45.07482 -62.95071 18242 ft 335 kts 54°
2026-05-05 19:37 45.08706 -62.92246 18929 ft 339 kts 56°
2026-05-05 19:37 45.09898 -62.89345 19596 ft 343 kts 57°
2026-05-05 19:37 45.11088 -62.86400 20285 ft 346 kts 57°
2026-05-05 19:37 45.12287 -62.83422 20945 ft 350 kts 57°
2026-05-05 19:38 45.13500 -62.80418 21614 ft 353 kts 57°
2026-05-05 19:38 45.14725 -62.77389 22276 ft 356 kts 57°
2026-05-05 19:38 45.15961 -62.74336 22963 ft 359 kts 57°
2026-05-05 19:38 45.17209 -62.71259 23614 ft 362 kts 57°
2026-05-05 19:39 45.18468 -62.68154 24161 ft 365 kts 57°
2026-05-05 19:39 45.19733 -62.65031 24737 ft 367 kts 57°
2026-05-05 19:39 45.21006 -62.61886 25302 ft 369 kts 57°
2026-05-05 19:39 45.22287 -62.58720 25849 ft 371 kts 57°
2026-05-05 19:40 45.23576 -62.55531 26386 ft 374 kts 57°
2026-05-05 19:40 45.24873 -62.52316 26911 ft 377 kts 57°
2026-05-05 19:40 45.26183 -62.49068 27407 ft 381 kts 57°
2026-05-05 19:40 45.27500 -62.45798 27948 ft 383 kts 56°
2026-05-05 19:41 45.28822 -62.42510 28480 ft 385 kts 56°
2026-05-05 19:41 45.30134 -62.39245 28969 ft 387 kts 56°
2026-05-05 19:41 45.31471 -62.35912 29496 ft 390 kts 56°
2026-05-05 19:41 45.32817 -62.32555 29980 ft 392 kts 56°
2026-05-05 19:42 45.34170 -62.29173 30396 ft 395 kts 56°
2026-05-05 19:42 45.35530 -62.25772 30790 ft 397 kts 56°
2026-05-05 19:42 45.36897 -62.22348 31174 ft 399 kts 56°
2026-05-05 19:42 45.38264 -62.18918 31628 ft 399 kts 56°
2026-05-05 19:43 45.39634 -62.15476 32038 ft 401 kts 56°
2026-05-05 19:43 45.41011 -62.12015 32393 ft 403 kts 56°
2026-05-05 19:43 45.42396 -62.08530 32765 ft 406 kts 56°
2026-05-05 19:43 45.43788 -62.05024 33152 ft 408 kts 56°
2026-05-05 19:44 45.44712 -62.02693 33397 ft 409 kts 56°
2026-05-05 19:44 45.46129 -61.99321 33741 ft 409 kts 52°
2026-05-05 19:44 45.47705 -61.95940 34087 ft 410 kts 51°
2026-05-05 19:44 45.49323 -61.92585 34369 ft 412 kts 51°
2026-05-05 19:45 45.50963 -61.89217 34646 ft 415 kts 51°
2026-05-05 19:45 45.52612 -61.85821 34868 ft 419 kts 51°
2026-05-05 19:45 45.54269 -61.82389 35143 ft 421 kts 51°
2026-05-05 19:45 45.55922 -61.78943 35453 ft 421 kts 51°
2026-05-05 19:46 45.57575 -61.75479 35722 ft 423 kts 52°
2026-05-05 19:46 45.59233 -61.71993 35978 ft 426 kts 52°
2026-05-05 19:46 45.60898 -61.68484 36215 ft 428 kts 52°
2026-05-05 19:46 45.62569 -61.64952 36452 ft 430 kts 52°
2026-05-05 19:47 45.64249 -61.61399 36693 ft 432 kts 52°
2026-05-05 19:47 45.65935 -61.57828 36932 ft 435 kts 52°
2026-05-05 19:47 45.67628 -61.54239 37143 ft 437 kts 52°
2026-05-05 19:47 45.69331 -61.50623 37360 ft 439 kts 52°
2026-05-05 19:48 45.71037 -61.46996 37603 ft 441 kts 52°
2026-05-05 19:48 45.72750 -61.43349 37817 ft 442 kts 52°
2026-05-05 19:48 45.74469 -61.39685 38015 ft 444 kts 53°
2026-05-05 19:48 45.76196 -61.35999 38226 ft 446 kts 53°
2026-05-05 19:49 45.77926 -61.32303 38430 ft 448 kts 53°
2026-05-05 19:49 45.79663 -61.28586 38618 ft 450 kts 53°
2026-05-05 19:49 45.81407 -61.24852 38737 ft 452 kts 53°
2026-05-05 19:49 45.83159 -61.21093 38868 ft 453 kts 53°
2026-05-05 19:50 45.84906 -61.17339 38938 ft 454 kts 53°
2026-05-05 19:50 45.88444 -61.09726 38969 ft 463 kts 53°
2026-05-05 19:51 45.92046 -61.01957 38966 ft 471 kts 53°
2026-05-05 19:51 45.95634 -60.94191 38958 ft 475 kts 53°
2026-05-05 19:52 45.99289 -60.86254 38953 ft 477 kts 53°
2026-05-05 19:52 46.02939 -60.78306 38939 ft 477 kts 53°
2026-05-05 19:53 46.06586 -60.70345 38938 ft 476 kts 53°
2026-05-05 19:53 46.10216 -60.62397 38952 ft 474 kts 53°
2026-05-05 19:54 46.13831 -60.54464 38935 ft 473 kts 53°
2026-05-05 19:54 46.17426 -60.46550 38935 ft 470 kts 53°
2026-05-05 19:55 46.20996 -60.38668 38934 ft 468 kts 53°
2026-05-05 19:55 46.24531 -60.30844 38946 ft 468 kts 53°
2026-05-05 19:56 46.28082 -60.22963 38938 ft 468 kts 53°
2026-05-05 19:56 46.31629 -60.15069 38945 ft 468 kts 53°
2026-05-05 19:57 46.35175 -60.07153 38940 ft 469 kts 53°
2026-05-05 19:57 46.38680 -59.99307 38937 ft 472 kts 53°
2026-05-05 19:58 46.42246 -59.91300 38933 ft 474 kts 53°
2026-05-05 19:58 46.45820 -59.83254 38940 ft 476 kts 53°
2026-05-05 19:59 46.49404 -59.75160 38956 ft 478 kts 53°
2026-05-05 19:59 46.52998 -59.67020 38946 ft 480 kts 53°
2026-05-05 20:00 46.56596 -59.58848 38941 ft 481 kts 53°
2026-05-05 20:00 46.60194 -59.50646 38940 ft 481 kts 53°
2026-05-05 20:01 46.63793 -59.42426 38961 ft 482 kts 53°
2026-05-05 20:01 46.67388 -59.34187 38944 ft 482 kts 53°
2026-05-05 20:02 46.70975 -59.25943 38951 ft 482 kts 53°
2026-05-05 20:02 46.74555 -59.17688 38953 ft 482 kts 53°
2026-05-05 20:03 46.78128 -59.09427 38954 ft 481 kts 53°
2026-05-05 20:03 46.81693 -59.01159 38966 ft 481 kts 54°
2026-05-05 20:04 46.85194 -58.93015 38968 ft 480 kts 54°
2026-05-05 20:04 46.88739 -58.84742 38970 ft 480 kts 54°
2026-05-05 20:05 46.92252 -58.76521 38976 ft 480 kts 54°
2026-05-05 20:05 46.95781 -58.68240 38980 ft 480 kts 54°
2026-05-05 20:06 46.99167 -58.59814 38971 ft 483 kts 63°
2026-05-05 20:06 47.01056 -58.50372 38983 ft 487 kts 79°
2026-05-05 20:07 47.02093 -58.40556 38982 ft 487 kts 80°
2026-05-05 20:07 47.03105 -58.30737 38994 ft 487 kts 79°
2026-05-05 20:08 47.04156 -58.20921 38994 ft 487 kts 79°
2026-05-05 20:08 47.05225 -58.11112 39001 ft 487 kts 79°
2026-05-05 20:09 47.06293 -58.01294 38995 ft 487 kts 79°
2026-05-05 20:09 47.07335 -57.91626 39004 ft 487 kts 79°
2026-05-05 20:10 47.08382 -57.81805 39007 ft 487 kts 79°
2026-05-05 20:10 47.09420 -57.71983 39023 ft 487 kts 79°
2026-05-05 20:11 47.10450 -57.62155 39012 ft 487 kts 79°
2026-05-05 20:11 47.11472 -57.52328 39018 ft 487 kts 79°
2026-05-05 20:12 47.12483 -57.42510 39018 ft 486 kts 79°
2026-05-05 20:12 47.13485 -57.32697 39012 ft 485 kts 80°
2026-05-05 20:13 47.14477 -57.22899 39020 ft 485 kts 80°
2026-05-05 20:13 47.15459 -57.13115 39035 ft 484 kts 80°
2026-05-05 20:14 47.16432 -57.03331 39026 ft 484 kts 80°
2026-05-05 20:14 47.17381 -56.93706 39026 ft 483 kts 80°
2026-05-05 20:15 47.18328 -56.84011 39008 ft 482 kts 80°
2026-05-05 20:15 47.19271 -56.74267 39009 ft 481 kts 80°
2026-05-05 20:16 47.20206 -56.64530 39014 ft 481 kts 80°
2026-05-05 20:16 47.21131 -56.54795 39013 ft 481 kts 81°
2026-05-05 20:17 47.22053 -56.45016 38550 ft 487 kts 80°
2026-05-05 20:17 47.22513 -56.40087 37951 ft 485 kts 80°
2026-05-05 20:17 47.22970 -56.35177 37425 ft 484 kts 79°
2026-05-05 20:17 47.23420 -56.30297 37039 ft 479 kts 79°
2026-05-05 20:18 47.23864 -56.25467 36623 ft 475 kts 79°
2026-05-05 20:18 47.24303 -56.20673 36236 ft 470 kts 78°
2026-05-05 20:18 47.24736 -56.15925 35849 ft 467 kts 78°
2026-05-05 20:18 47.25164 -56.11209 35454 ft 463 kts 77°
2026-05-05 20:19 47.25588 -56.06522 35062 ft 460 kts 77°
2026-05-05 20:19 47.26007 -56.01865 34690 ft 458 kts 77°
2026-05-05 20:19 47.26411 -55.97368 34296 ft 456 kts 76°
2026-05-05 20:19 47.26822 -55.92757 33887 ft 453 kts 76°
2026-05-05 20:20 47.27230 -55.88169 33431 ft 451 kts 76°
2026-05-05 20:20 47.27633 -55.83610 33025 ft 447 kts 76°
2026-05-05 20:20 47.28031 -55.79087 32632 ft 444 kts 76°
2026-05-05 20:20 47.28425 -55.74595 32251 ft 440 kts 76°
2026-05-05 20:21 47.28813 -55.70142 31876 ft 437 kts 76°
2026-05-05 20:21 47.29197 -55.65716 31510 ft 434 kts 76°
2026-05-05 20:21 47.29576 -55.61321 31143 ft 431 kts 76°
2026-05-05 20:21 47.29953 -55.56950 30773 ft 428 kts 76°
2026-05-05 20:22 47.30324 -55.52612 30424 ft 426 kts 76°
2026-05-05 20:22 47.30688 -55.48348 30091 ft 424 kts 76°
2026-05-05 20:22 47.31053 -55.44052 29704 ft 422 kts 76°
2026-05-05 20:22 47.31413 -55.39781 29283 ft 419 kts 76°
2026-05-05 20:23 47.31770 -55.35536 28876 ft 416 kts 76°
2026-05-05 20:23 47.32123 -55.31320 28489 ft 413 kts 76°
2026-05-05 20:23 47.32472 -55.27133 28112 ft 410 kts 76°
2026-05-05 20:23 47.32817 -55.22969 27760 ft 408 kts 77°
2026-05-05 20:24 47.33159 -55.18836 27386 ft 405 kts 77°
2026-05-05 20:24 47.33497 -55.14721 27034 ft 403 kts 76°
2026-05-05 20:24 47.33832 -55.10629 26664 ft 401 kts 77°
2026-05-05 20:24 47.34164 -55.06558 26295 ft 399 kts 77°
2026-05-05 20:25 47.34494 -55.02503 25944 ft 398 kts 77°
2026-05-05 20:25 47.34810 -54.98596 25595 ft 396 kts 77°
2026-05-05 20:25 47.35134 -54.94564 25228 ft 395 kts 77°
2026-05-05 20:25 47.35456 -54.90552 24871 ft 394 kts 77°
2026-05-05 20:26 47.35776 -54.86535 24495 ft 394 kts 77°
2026-05-05 20:26 47.36095 -54.82526 24119 ft 394 kts 77°
2026-05-05 20:26 47.36413 -54.78513 23734 ft 394 kts 77°
2026-05-05 20:26 47.36728 -54.74501 23311 ft 393 kts 77°
2026-05-05 20:27 47.37040 -54.70504 22925 ft 391 kts 77°
2026-05-05 20:27 47.37349 -54.66526 22536 ft 390 kts 77°
2026-05-05 20:27 47.37656 -54.62564 22168 ft 387 kts 78°
2026-05-05 20:27 47.37960 -54.58626 21805 ft 385 kts 78°
2026-05-05 20:28 47.38261 -54.54707 21448 ft 384 kts 77°
2026-05-05 20:28 47.38560 -54.50802 21085 ft 382 kts 77°
2026-05-05 20:28 47.38857 -54.46908 20717 ft 381 kts 77°
2026-05-05 20:28 47.39150 -54.43036 20366 ft 379 kts 78°
2026-05-05 20:29 47.39441 -54.39173 20011 ft 378 kts 78°
2026-05-05 20:29 47.39731 -54.35320 19640 ft 378 kts 78°
2026-05-05 20:29 47.39922 -54.32769 19406 ft 377 kts 78°
2026-05-05 20:29 47.40306 -54.27628 18920 ft 377 kts 77°
2026-05-05 20:30 47.40587 -54.23836 18548 ft 376 kts 77°
2026-05-05 20:30 47.40870 -54.20005 18182 ft 375 kts 78°
2026-05-05 20:30 47.41152 -54.16177 17794 ft 374 kts 78°
2026-05-05 20:30 47.41430 -54.12364 17423 ft 373 kts 78°
2026-05-05 20:31 47.41738 -54.08578 17014 ft 371 kts 76°
2026-05-05 20:31 47.42126 -54.04824 16633 ft 369 kts 75°
2026-05-05 20:31 47.42404 -54.02306 16386 ft 367 kts 75°
2026-05-05 20:31 47.42808 -53.98711 16053 ft 365 kts 75°
2026-05-05 20:32 47.43218 -53.95020 15704 ft 364 kts 75°
2026-05-05 20:32 47.43621 -53.91343 15363 ft 362 kts 75°
2026-05-05 20:32 47.44017 -53.87681 15025 ft 361 kts 76°
2026-05-05 20:32 47.44402 -53.84074 14688 ft 359 kts 76°
2026-05-05 20:33 47.44787 -53.80431 14322 ft 359 kts 76°
2026-05-05 20:33 47.45168 -53.76798 13987 ft 357 kts 76°
2026-05-05 20:33 47.45547 -53.73174 13627 ft 356 kts 76°
2026-05-05 20:33 47.45922 -53.69566 13245 ft 355 kts 76°
2026-05-05 20:34 47.46295 -53.65970 12892 ft 353 kts 76°
2026-05-05 20:34 47.46664 -53.62394 12547 ft 351 kts 77°
2026-05-05 20:34 47.47030 -53.58840 12198 ft 349 kts 77°
2026-05-05 20:34 47.47394 -53.55298 11872 ft 348 kts 77°
2026-05-05 20:35 47.47755 -53.51775 11547 ft 346 kts 77°
2026-05-05 20:35 47.48113 -53.48269 11221 ft 344 kts 77°
2026-05-05 20:35 47.48468 -53.44778 10889 ft 343 kts 77°
2026-05-05 20:35 47.48821 -53.41296 10556 ft 342 kts 77°
2026-05-05 20:36 47.49173 -53.37821 10218 ft 341 kts 77°
2026-05-05 20:36 47.49519 -53.34380 10029 ft 335 kts 77°
2026-05-05 20:36 47.49855 -53.31020 9912 ft 326 kts 77°
2026-05-05 20:36 47.50192 -53.27667 9405 ft 331 kts 77°
2026-05-05 20:37 47.50530 -53.24292 9040 ft 332 kts 77°
2026-05-05 20:37 47.50866 -53.20925 8709 ft 331 kts 78°
2026-05-05 20:37 47.51199 -53.17569 8410 ft 329 kts 78°
2026-05-05 20:37 47.51530 -53.14227 8085 ft 328 kts 78°
2026-05-05 20:38 47.51859 -53.10899 7765 ft 326 kts 78°
2026-05-05 20:38 47.52186 -53.07581 7428 ft 326 kts 78°
2026-05-05 20:38 47.52511 -53.04269 7116 ft 325 kts 78°
2026-05-05 20:38 47.52833 -53.00963 6803 ft 324 kts 78°
2026-05-05 20:39 47.53052 -52.97754 6515 ft 324 kts 83°
2026-05-05 20:39 47.53200 -52.94439 6212 ft 323 kts 84°
2026-05-05 20:39 47.53345 -52.91129 5911 ft 322 kts 83°
2026-05-05 20:39 47.53498 -52.87828 5608 ft 321 kts 84°
2026-05-05 20:40 47.53655 -52.84551 5399 ft 316 kts 84°
2026-05-05 20:40 47.53808 -52.81359 5306 ft 307 kts 84°
2026-05-05 20:40 47.53959 -52.78246 5154 ft 300 kts 84°
2026-05-05 20:40 47.54105 -52.75208 5055 ft 292 kts 83°
2026-05-05 20:41 47.54248 -52.72228 4792 ft 292 kts 84°
2026-05-05 20:41 47.54391 -52.69208 4411 ft 296 kts 85°
2026-05-05 20:41 47.54536 -52.66215 4196 ft 285 kts 85°
2026-05-05 20:41 47.54754 -52.63245 3688 ft 293 kts 75°
2026-05-05 20:42 47.55619 -52.60580 3338 ft 286 kts 40°
2026-05-05 20:42 47.57217 -52.59080 2995 ft 263 kts
2026-05-05 20:42 47.58959 -52.58887 2712 ft 243 kts 341°
2026-05-05 20:42 47.60493 -52.59631 2447 ft 221 kts 320°
2026-05-05 20:43 47.61626 -52.60912 2358 ft 192 kts 304°
2026-05-05 20:43 47.62382 -52.62399 2251 ft 172 kts 291°
2026-05-05 20:43 47.62796 -52.63929 2133 ft 151 kts 277°
2026-05-05 20:43 47.62912 -52.65395 2058 ft 137 kts 267°
2026-05-05 20:44 47.62891 -52.66712 1924 ft 121 kts 261°
2026-05-05 20:44 47.62821 -52.67954 1632 ft 121 kts 259°
2026-05-05 20:44 47.62763 -52.69228 1254 ft 125 kts 262°
2026-05-05 20:44 47.62688 -52.70492 986 ft 122 kts 263°
2026-05-05 20:45 47.62574 -52.72897 634 ft 114 kts 263°
2026-05-05 20:45 47.62511 -52.74061 486 ft 116 kts 265°
2026-05-05 20:45 47.62463 -52.75136 477 ft 82 kts 265°
2026-05-05 20:46 47.62437 -52.75663 487 ft 26 kts 266°
2026-05-05 20:46 47.62420 -52.75998 480 ft 40 kts 265°
2026-05-05 20:46 47.62394 -52.76433 486 ft 40 kts 262°
2026-05-05 20:46 47.62366 -52.76842 488 ft 40 kts 268°
2026-05-05 20:47 47.62371 -52.77135 485 ft 16 kts 13°
2026-05-05 20:47 47.62381 -52.76945 482 ft 29 kts 84°
2026-05-05 20:47 47.62384 -52.76898 483 ft 1 kts 85°
2026-05-05 20:47 47.62384 -52.76896 483 ft 0 kts 85°